User: anonymous   Login
Location: Augustenthal
(51.7167°N, 10.2833°E)
Time: 23:16:24
(UTC+00:00)
Language:

Nadezhda 1 Rocket - Orbit

View from above orbital plane
View from above orbital plane
View from above satellite
View from above satellite

Ground track
Ground track

The orbit data is extracted from the following two-line orbital elements,

1 20104U 89050B   21213.53474806  .00000035  00000-0  19975-4 0  9998
2 20104  82.9575 133.7847 0042291 286.4711  73.1802 13.77337151611743
Epoch (UTC): 01 August 2021 12:50:02
Eccentricity: 0.0042291
inclination: 82.9575°
perigee height: 942 km
apogee height: 1004 km
right ascension of ascending node: 133.7847°
argument of perigee: 286.4711°
revolutions per day: 13.77337151
mean anomaly at epoch: 73.1802°
orbit number at epoch: 61174

The dashed part of the orbit path shows where the satellite is in the earth's shadow,  

DLR